Regional Weather Roundup
Issued by NWS

Home | Current Version | Previous Version | Text Only | Print | Product List | Glossary Off
Versions: 1 2 3 4 5 6 7 8 9 10 11 12 13 14 15 16 17 18 19 20 21 22 23 24 25 26 27 28 29 30 31 32 33 34 35 36 37 38 39 40 41 42 43 44 45 46 47 48 49 50

000
ASUS45 KABQ 010401
RWRNM
WEATHER ROUNDUP FOR NEW MEXICO
NATIONAL WEATHER SERVICE ALBUQUERQUE NM
900 PM MST SAT FEB 28 2015

NOTE: "FAIR" MEANS FEW OR NO CLOUDS BELOW 12,000 FEET AGL WITH NO
       SIGNIFICANT WEATHER OR OBSTRUCTIONS TO VISION.

      THIS PRODUCT IS RELEASED AS TWO VERSIONS.  ONE VERSION NEAR
      THE TOP OF THE HOUR CONTAINING PRELIMINARY DATA FROM ALBUQUERQUE
      AND OTHER STATIONS.  A FINAL VERSION WITH ADDITIONAL DATA IS
      ISSUED ABOUT 10 MINUTES AFTER THE HOUR.

NMZ501-503-504-510>518-010500-
NORTHWEST PLATEAU/NORTHCENTRAL MOUNTAINS

CITY           SKY/WX    TMP DP  RH WIND       PRES   REMARKS
FARMINGTON     CLOUDY    33  31  92 E3        29.92R
SANTA FE       LGT RAIN  34  32  92 CALM      29.96R
TAOS           CLOUDY    28  25  86 CALM      29.97R
ANGEL FIRE     CLOUDY    35  28  76 SW14G22   29.95R WCI  25

$$
NMZ402-403-502-505>509-010500-
WESTCENTRAL MOUNTAINS/SOUTHWEST MOUNTAINS

CITY           SKY/WX    TMP DP  RH WIND       PRES   REMARKS
GALLUP         CLOUDY    40  35  83 SW14      29.94R WCI  32
GRANTS         PTCLDY    34  32  92 SE7       29.97R WCI  28
SILVER CITY    PTCLDY    48  36  61 N5        30.02R

$$
NMZ407-409-411-412-010500-
SOUTHERN DESERTS

CITY           SKY/WX    TMP DP  RH WIND       PRES   REMARKS
DEMING         CLEAR     55  35  47 SW10      29.97R
HOLLOMAN AFB   PTCLDY    47  30  51 N3        29.96R
ALAMOGORDO     PTCLDY    46  28  49 MISG      29.98R
T OR C         PTCLDY    56  37  49 S8        29.94R

$$
NMZ519>523-010500-
CENTRAL VALLEYS/CENTRAL HIGHLANDS

CITY           SKY/WX    TMP DP  RH WIND       PRES   REMARKS
ALBUQUERQUE    MOCLDY    33  29  85 NW8       29.98R WCI  26
DOUBLE EAGLE   MOCLDY    30  28  93 NW5       29.99R WCI  25
CLINES CORNERS CLEAR     35  28  75 SW18      29.95R WCI  24
BELEN          MOCLDY    32  31  94 NW5       29.99R WCI  28
SOCORRO          N/A     38  31  77 N10       29.97R WCI  30

$$
NMZ524>526-539-540-010500-
SOUTHCENTRAL MOUNTAINS

CITY           SKY/WX    TMP DP  RH WIND       PRES   REMARKS
RUIDOSO        NOT AVBL

$$
NMZ527>531-010500-
NORTHEAST HIGHLANDS/NORTHEAST PLAINS

CITY           SKY/WX    TMP DP  RH WIND       PRES   REMARKS
LAS VEGAS      FOG       22  21  96 S12       29.95R VSB 1/2 WCI  10
RATON          CLOUDY    21  17  84 CALM      29.95R
CLAYTON        CLOUDY    23  19  85 S7        30.03R WCI  15

$$
NMZ532>537-010500-
EASTCENTRAL PLAINS

CITY           SKY/WX    TMP DP  RH WIND       PRES   REMARKS
TUCUMCARI      CLOUDY    26  22  84 SW8       30.07S WCI  18
CANNON AFB     CLOUDY    27  26  96 S10       30.07R WCI  17
CLOVIS AIRPORT CLOUDY    27  25  93 S12       30.09R WCI  16

$$
NMZ028-029-538-010500-
SOUTHEAST PLAINS

CITY           SKY/WX    TMP DP  RH WIND       PRES   REMARKS
ROSWELL        CLOUDY    29  25  85 S10       30.12R WCI  20
ARTESIA        CLOUDY    28  28 100 S12       30.13R FOG     WCI  18
CARLSBAD       CLOUDY    31  28  89 SE12      30.13R FOG     WCI  22
HOBBS          FOG       28  28 100 S7        30.14R VSB 1/2 WCI  21


$$


USA.gov is the U.S. government's official web portal to all federal, state and local government web resources and services.